This is the latest recevied weather packets stored in our database for station/object W0AKO. If no packets are shown the sender has not sent any weather packets the latest 10 day(s).
| Time | Temp. | Humidity | Pressure | Rain* | Wind** | Luminosity | Snow |
|---|---|---|---|---|---|---|---|
| 1777823239 | 19.44° C | 10% | 1016.7 hPa | 0 mm | - | 319 W/m² | - |
| 1777822937 | 18.89° C | 10% | 1016.7 hPa | 0 mm | - | 315 W/m² | - |
| 1777822635 | 18.89° C | 10% | 1016.9 hPa | 0 mm | - | 306 W/m² | - |
| 1777822332 | 18.89° C | 10% | 1016.9 hPa | 0 mm | - | 296 W/m² | - |
| 1777822030 | 18.33° C | 10% | 1016.9 hPa | 0 mm | - | 281 W/m² | - |
| 1777821728 | 17.78° C | 10% | 1016.7 hPa | 0 mm | - | 171 W/m² | - |
| 1777821424 | 18.33° C | 10% | 1016.8 hPa | 0 mm | - | 114 W/m² | - |
| 1777821121 | 18.33° C | 10% | 1016.9 hPa | 0 mm | - | 301 W/m² | - |
| 1777820818 | 18.33° C | 10% | 1016.9 hPa | 0 mm | - | 337 W/m² | - |
| 1777820514 | 18.33° C | 10% | 1017 hPa | 0 mm | - | 202 W/m² | - |
| 1777820211 | 18.89° C | 10% | 1016.9 hPa | 0 mm | - | 287 W/m² | - |
| 1777819909 | 17.78° C | 10% | 1017.1 hPa | 0 mm | - | 245 W/m² | - |
| 1777819606 | 17.22° C | 10% | 1016.9 hPa | 0 mm | - | 245 W/m² | - |
| 1777819304 | 17.22° C | 10% | 1016.7 hPa | 0 mm | - | 174 W/m² | - |
| 1777819000 | 16.11° C | 10% | 1017 hPa | 0 mm | - | 174 W/m² | - |
| 1777818697 | 16.11° C | 10% | 1016.9 hPa | 0 mm | - | 154 W/m² | - |
| 1777818394 | 15.56° C | 10% | 1016.9 hPa | 0 mm | - | 167 W/m² | - |
| 1777818091 | 16.11° C | 10% | 1017 hPa | 0 mm | - | 108 W/m² | - |
| 1777817787 | 16.11° C | 10% | 1016.7 hPa | 0 mm | - | 145 W/m² | - |
| 1777817485 | 15.56° C | 10% | 1016.8 hPa | 0 mm | - | 104 W/m² | - |
| 1777817181 | 15.56° C | 10% | 1016.5 hPa | 0 mm | - | 81 W/m² | - |
| 1777816879 | 15° C | 10% | 1016.7 hPa | 0 mm | - | 114 W/m² | - |
| 1777816575 | 14.44° C | 10% | 1016.7 hPa | 0 mm | - | 89 W/m² | - |
| 1777816272 | 15° C | 10% | 1016.6 hPa | 0 mm | - | 75 W/m² | - |
| 1777815969 | 14.44° C | 10% | 1016.6 hPa | 0 mm | - | 65 W/m² | - |
* Rain latest hour (hover to see other rain measurements)
** Current wind speed in m/s (hover to see current wind gust speed)